Regional Weather Roundup
Issued by NWS

Home | Current Version | Previous Version | Graphics & Text | Print | Product List | Glossary On
Versions: 1 2 3 4 5 6 7 8 9 10 11 12 13 14 15 16 17 18 19 20 21 22 23 24 25 26 27 28 29 30 31 32 33 34 35 36 37 38 39 40 41 42 43 44 45 46 47 48 49 50
000
ASUS45 KSLC 170210
RWRUT

UTAH REGIONAL WEATHER ROUNDUP
NATIONAL WEATHER SERVICE SALT LAKE CITY UT
800 PM MDT WED AUG 16 2017

UTZ001>011-023>025-170300-

NORTHERN UTAH

CITY           SKY/WX    TMP DP  RH WIND       PRES   REMARKS
BRIGHAM CITY   PTCLDY    82  32  16 SE3       30.01F
HILL AFB       CLEAR     79  38  23 CALM      30.05S
LOGAN          PTCLDY    81  41  24 SE3       30.02F
OGDEN          MOCLDY    81  35  19 NW5       30.02S
SALT LAKE CITY MOCLDY    84  37  18 N6        30.01S
TOOELE VALLEY  MOCLDY    77  41  27 CALM      30.03R
WENDOVER       MOCLDY    84  38  19 S7        30.01S
HEBER CITY     PTCLDY    72  41  33 CALM      30.10S
WEST JORDAN    MOCLDY    80  50  34 N3        30.05S

$$

UTZ011>015-024>027-170300-

CENTRAL/NORTHEAST UTAH

CITY           SKY/WX    TMP DP  RH WIND       PRES   REMARKS
PROVO AIRPORT  PTCLDY    75  51  43 N5        30.04S
MOAB/CANYONLAN MOCLDY    82  22  11 NW6       30.00S
DELTA          MOCLDY    79  34  19 N10       30.06S
PRICE          MOCLDY    73  36  25 S14       30.13R
RICHFIELD      PTCLDY    73  39  29 W5        30.12S
ROOSEVELT      CLEAR     75  41  29 CALM      30.13R
VERNAL         CLEAR     74  42  31 NW15G21   30.10S

$$

UTZ013>016-019>022-027-170300-

SOUTHERN UTAH

CITY           SKY/WX    TMP DP  RH WIND       PRES   REMARKS
BRYCE CANYON   MOCLDY    65  37  35 N6        30.27R
CEDAR CITY     MOCLDY    75  38  26 NE9       30.10S
MILFORD        CLOUDY    81  35  19 N9        30.08R
ST GEORGE      PTCLDY    93  37  14 W12       29.90S
HANKSVILLE     MOCLDY    82  32  16 NW3       30.04S
KANAB          CLEAR     81  32  17 S6        30.09S
BLANDING       PTCLDY    74  28  18 S6        30.19S

$$

REGIONAL REPORTS     COLORADO/ARIZONA

CITY           SKY/WX    TMP DP  RH WIND       PRES   REMARKS
CRAIG, CO      CLEAR     68  37  32 CALM      30.16R
GRAND JUNCTION CLEAR     82  35  18 NW13      30.04R
RIFLE, CO      CLOUDY    79  30  16 W10G29    30.10R
MONTROSE, CO   CLOUDY    75  42  30 W3        30.12S
CORTEZ, CO     CLEAR     77  23  13 CALM      30.14R
COLORADO CITY    N/A     84  36  17 NW8       30.08R
PAGE, AZ       CLEAR     87  29  12 E5        29.99S
GRAND CANYON   PTCLDY    71  34  25 W6        30.22S
KINGMAN, AZ    CLEAR     86  41  20 SW9       29.97S
FLAGSTAFF, AZ  CLEAR     67  38  34 SW5       30.25S

$$

REGIONAL REPORTS    NEVADA/IDAHO/WYOMING

CITY           SKY/WX    TMP DP  RH WIND       PRES   REMARKS
LAS VEGAS, NV  PTCLDY    94  40  15 SE6       29.85S HX  90
ELY, NY        MOCLDY    67  46  47 S13       30.19S
ELKO, NV       PTCLDY    80  36  20 S7        30.05S
POCATELLO, ID  CLEAR     79  39  23 SW10      30.02S
BURLEY, ID     CLEAR     76  43  30 W7        30.00S
FORT BRIDGER,  PTCLDY    66  36  32 SW10      30.24S
EVANSTON, WY   CLOUDY    64  41  42 S9        30.22S
ROCK SPRINGS,  CLEAR     69  29  22 E3        30.17S
KEMMERER, WY     N/A     66  32  28 NW9       30.22S

$$



USA.gov is the U.S. government's official web portal to all federal, state and local government web resources and services.